sat.trackr.live / text

‹ back to catalog

QIANFAN-1

NORAD 60379 · 2024-140A

PAYLOAD ACTIVE UNKNOWN

§ Identity

Operator
Country
PRC
Launch date
2024-08-06
Launch site
TAISC
Launch vehicle
Mass (kg)
RCS (m²)

External: N2YO · Heavens-Above · Gunter

§ Orbital elements

Epoch: 2026-05-25T03:37:04.584864Z

Period
106.59 min
Inclination
88.9713°
Eccentricity
0.0019596
Mean motion
13.51010561 rev/d
Perigee alt
1,054.0 km
Apogee alt
1,083.1 km
Semi-major
7,446.7 km
B*
1.2189e-4
RAAN
282.3204°
Arg perigee
103.1827°
Mean anomaly
257.1512°
Rev number
8,941

§ Raw data

QIANFAN-11 60379U 24140A   26145.15074751  .00000091  00000+0  12189-3 0  99972 60379  88.9713 282.3204 0019596 103.1827 257.1512 13.51010561 89414

JSON: /api/v1/satellites/60379 · /tle

For live sub-satellite position, see the globe view (requires WebGL).

§ Visibility from observer

Set your observer location to see the next 7 days of passes ≥ 10°. The values pass through the URL so the page stays shareable.

No JS? Fill the form by hand. The geolocation button needs JavaScript.